Weather History for KCKI - October, 2012

Change the Weather History Date:

Tuesday, October 23, 2012

  Actual Average Record
Temperature  
Mean Temperature 62 °F -  
Max Temperature 78 °F 75 °F 78 °F (2012)
Min Temperature 46 °F 46 °F 37 °F (2010)
Degree Days  
Heating Degree Days 3    
Growing Degree Days 12 (Base 50)    
Moisture  
Dew Point 54 °F    
Average Humidity 81    
Maximum Humidity 100    
Minimum Humidity 42    
Precipitation  
Precipitation 0.00 in - - ()
Sea Level Pressure  
Sea Level Pressure 30.16 in    
Wind  
Wind Speed 0 mph (NE)    
Max Wind Speed 5 mph    
Max Gust Speed -    
Visibility 10 miles    
Events      
Averages and records for this station are not official NWS values.
T = Trace of Precipitation, MM = Missing Value Source: NWS Daily Summary

Daily Weather History Graph

Daily Weather History Graph

Search for Another Location

Airport or City:

Trip Planner

Search our weather history database for the weather conditions in past years. The results will help you decide how hot, cold, wet, or windy it might be!

Date:

Astronomy

Oct. 23, 2012 Rise Set
Actual Time 7:31 AM EDT 6:35 PM EDT
Civil Twilight 7:05 AM EDT 7:01 PM EDT
Nautical Twilight 6:36 AM EDT 7:30 PM EDT
Astronomical Twilight 6:07 AM EDT 7:59 PM EDT
Moon 3:03 PM EDT (10/23) 1:38 AM EDT (10/23)
Length of Visible Light 11h 55m
Length of Day
11h 04m
Waxing Gibbous, 66% of the Moon is Illuminated
Oct 23
Waxing Gibbous
Oct 29
Full
Nov 6
Last Quarter
Nov 13
New
Nov 20
First Quarter

Hourly Weather History & Observations

Time (EDT) Temp. Dew Point Humidity Pressure Visibility Wind Dir Wind Speed Gust Speed Precip Events Conditions
12:15 AM 51.8 °F 51.8 °F 100% 30.20 in 10.0 mi Calm Calm - N/A   Clear
12:35 AM 51.8 °F 51.8 °F 100% 30.20 in 10.0 mi Calm Calm - N/A   Clear
12:55 AM 50.0 °F 50.0 °F 100% 30.19 in 10.0 mi Calm Calm - N/A   Clear
1:15 AM 50.0 °F 50.0 °F 100% 30.19 in 10.0 mi Calm Calm - N/A   Clear
1:35 AM 50.0 °F 50.0 °F 100% 30.19 in 10.0 mi Calm Calm - N/A   Clear
2:15 AM 50.0 °F 50.0 °F 100% 30.18 in 10.0 mi Calm Calm - N/A   Clear
2:35 AM 50.0 °F 50.0 °F 100% 30.18 in 10.0 mi Calm Calm - N/A   Clear
2:55 AM 50.0 °F 50.0 °F 100% 30.17 in 10.0 mi Calm Calm - N/A   Clear
3:35 AM 48.2 °F 48.2 °F 100% 30.17 in 10.0 mi Calm Calm - N/A   Clear
3:55 AM 48.2 °F 48.2 °F 100% 30.16 in 10.0 mi Calm Calm - N/A   Clear
4:15 AM 48.2 °F 48.2 °F 100% 30.16 in 10.0 mi Calm Calm - N/A   Clear
4:35 AM 46.4 °F 46.4 °F 100% 30.17 in 10.0 mi Calm Calm - N/A   Clear
4:55 AM 46.4 °F 46.4 °F 100% 30.16 in 10.0 mi Calm Calm - N/A   Clear
5:15 AM 46.4 °F 46.4 °F 100% 30.17 in 10.0 mi Calm Calm - N/A   Clear
5:35 AM 46.4 °F 46.4 °F 100% 30.17 in 10.0 mi Calm Calm - N/A   Clear
5:55 AM 46.4 °F 46.4 °F 100% 30.17 in 10.0 mi Calm Calm - N/A   Clear
6:15 AM 46.4 °F 46.4 °F 100% 30.17 in 10.0 mi Calm Calm - N/A   Clear
6:55 AM 46.4 °F 46.4 °F 100% 30.18 in 10.0 mi Calm Calm - N/A   Clear
7:35 AM 46.4 °F 46.4 °F 100% 30.19 in 10.0 mi Calm Calm - N/A   Clear
7:55 AM 46.4 °F 46.4 °F 100% 30.20 in 10.0 mi Calm Calm - N/A   Clear
8:15 AM 46.4 °F 46.4 °F 100% 30.21 in 10.0 mi Calm Calm - N/A   Clear
8:55 AM 53.6 °F 53.6 °F 100% 30.22 in 10.0 mi Calm Calm - N/A   Clear
10:35 AM 66.2 °F 59.0 °F 78% 30.22 in 10.0 mi Calm Calm - N/A   Clear
11:15 AM 69.8 °F 59.0 °F 68% 30.22 in 10.0 mi Calm Calm - N/A   Clear
11:35 AM 71.6 °F 59.0 °F 64% 30.21 in 10.0 mi NNW 3.5 mph - N/A   Clear
11:55 AM 71.6 °F 55.4 °F 57% 30.21 in 10.0 mi Calm Calm - N/A   Clear
12:15 PM 73.4 °F 55.4 °F 53% 30.20 in 10.0 mi Calm Calm - N/A   Clear
12:35 PM 73.4 °F 55.4 °F 53% 30.19 in 10.0 mi Calm Calm - N/A   Clear
12:55 PM 73.4 °F 55.4 °F 53% 30.18 in 10.0 mi ENE 3.5 mph - N/A   Clear
1:15 PM 75.2 °F 55.4 °F 50% 30.17 in 10.0 mi Calm Calm - N/A   Clear
1:35 PM 77.0 °F 55.4 °F 47% 30.16 in 10.0 mi ENE 4.6 mph - N/A   Clear
1:55 PM 77.0 °F 55.4 °F 47% 30.15 in 10.0 mi South 3.5 mph - N/A   Clear
2:15 PM 77.0 °F 55.4 °F 47% 30.15 in 10.0 mi Calm Calm - N/A   Clear
2:35 PM 77.0 °F 53.6 °F 44% 30.14 in 10.0 mi Calm Calm - N/A   Clear
2:55 PM 78.8 °F 53.6 °F 42% 30.13 in 10.0 mi Calm Calm - N/A   Clear
3:15 PM 77.0 °F 53.6 °F 44% 30.13 in 10.0 mi Calm Calm - N/A   Clear
3:35 PM 78.8 °F 53.6 °F 42% 30.12 in 10.0 mi NNW 3.5 mph - N/A   Clear
3:55 PM 78.8 °F 53.6 °F 42% 30.12 in 10.0 mi East 3.5 mph - N/A   Clear
4:15 PM 78.8 °F 53.6 °F 42% 30.12 in 10.0 mi WSW 3.5 mph - N/A   Clear
4:35 PM 78.8 °F 53.6 °F 42% 30.12 in 10.0 mi Calm Calm - N/A   Clear
4:55 PM 78.8 °F 53.6 °F 42% 30.12 in 10.0 mi Calm Calm - N/A   Clear
5:15 PM 78.8 °F 53.6 °F 42% 30.12 in 10.0 mi Calm Calm - N/A   Clear
5:35 PM 77.0 °F 55.4 °F 47% 30.12 in 10.0 mi Calm Calm - N/A   Clear
5:55 PM 75.2 °F 59.0 °F 57% 30.12 in 10.0 mi Calm Calm - N/A   Clear
6:15 PM 71.6 °F 60.8 °F 69% 30.12 in 10.0 mi Calm Calm - N/A   Clear
6:35 PM 68.0 °F 60.8 °F 78% 30.12 in 10.0 mi Calm Calm - N/A   Clear
6:55 PM 66.2 °F 60.8 °F 83% 30.13 in 10.0 mi Calm Calm - N/A   Clear
7:15 PM 64.4 °F 59.0 °F 83% 30.14 in 10.0 mi Calm Calm - N/A   Clear
7:35 PM 62.6 °F 59.0 °F 88% 30.14 in 10.0 mi Calm Calm - N/A   Clear
7:55 PM 60.8 °F 59.0 °F 94% 30.14 in 10.0 mi Calm Calm - N/A   Clear
8:15 PM 60.8 °F 59.0 °F 94% 30.15 in 10.0 mi Calm Calm - N/A   Clear
8:35 PM 59.0 °F 59.0 °F 100% 30.15 in 10.0 mi Calm Calm - N/A   Clear
8:55 PM 59.0 °F 59.0 °F 100% 30.15 in 10.0 mi Calm Calm - N/A   Clear
9:15 PM 59.0 °F 59.0 °F 100% 30.16 in 10.0 mi Calm Calm - N/A   Clear
9:35 PM 59.0 °F 59.0 °F 100% 30.16 in 10.0 mi Calm Calm - N/A   Clear
9:55 PM 59.0 °F 59.0 °F 100% 30.16 in 10.0 mi Calm Calm - N/A   Clear
10:15 PM 59.0 °F 59.0 °F 100% 30.16 in 10.0 mi Calm Calm - N/A   Clear
10:35 PM 59.0 °F 59.0 °F 100% 30.17 in 10.0 mi Calm Calm - N/A   Clear
10:55 PM 59.0 °F 59.0 °F 100% 30.17 in 10.0 mi Calm Calm - N/A   Clear
11:15 PM 55.4 °F 55.4 °F 100% 30.17 in 10.0 mi Calm Calm - N/A   Clear
11:35 PM 55.4 °F 55.4 °F 100% 30.17 in 10.0 mi Calm Calm - N/A   Clear
11:55 PM 55.4 °F 55.4 °F 100% 30.17 in 10.0 mi Calm Calm - N/A   Clear